When you browse on this site, cookies collect data to enhance your experience and personalize the content and advertising you see.
Visit our Privacy Policy to learn more. By continuing to use the site, you agree to this use of cookies and data.
  • In Latvia
  • List of Countries
  • For 7 days
  • Water Temperature
  • Weather Map
  • Weather Widgets
  • user-avatar
    Login

    Hourly Weather Priuzenskiy

    Today, 20 October, Sunday

    Time Temperature Precipitation Wind Pressure Humidity
    00:00 +9°C° 0 mm 3 mps 766 mmHg 91%
    01:00 +9°C° 0 mm 3 mps 766 mmHg 92%
    02:00 +9°C° 0 mm 3 mps 766 mmHg 92%
    03:00 +8°C° 0 mm 3 mps 767 mmHg 94%
    04:00 +8°C° 0 mm 3 mps 767 mmHg 94%
    05:00 +7°C° 0 mm 3 mps 767 mmHg 93%
    06:00 +7°C° 0 mm 3 mps 768 mmHg 93%
    07:00 +8°C° 0 mm 3 mps 768 mmHg 87%
    08:00 +9°C° 0 mm 3 mps 768 mmHg 81%
    09:00 +10°C° 0 mm 3 mps 768 mmHg 75%
    10:00 +11°C° 0 mm 3 mps 768 mmHg 71%
    11:00 +13°C° 0 mm 2 mps 768 mmHg 67%
    12:00 +15°C° 0 mm 2 mps 768 mmHg 62%
    13:00 +15°C° 0 mm 2 mps 769 mmHg 61%
    14:00 +15°C° 0 mm 2 mps 769 mmHg 59%
    15:00 +16°C° 0 mm 2 mps 769 mmHg 57%
    16:00 +15°C° 0 mm 2 mps 769 mmHg 60%
    17:00 +14°C° 0 mm 2 mps 769 mmHg 64%
    18:00 +13°C° 0 mm 2 mps 769 mmHg 67%
    19:00 +13°C° 0 mm 2 mps 769 mmHg 68%
    20:00 +11°C° 0 mm 3 mps 769 mmHg 70%
    21:00 +11°C° 0 mm 3 mps 769 mmHg 71%
    22:00 +10°C° 0 mm 3 mps 770 mmHg 72%
    23:00 +10°C° 0 mm 3 mps 770 mmHg 73%

    Tomorrow, 21 October, Monday

    Time Temperature Precipitation Wind Pressure Humidity
    00:00 +9°C° 0 mm 2 mps 770 mmHg 73%
    01:00 +9°C° 0 mm 2 mps 770 mmHg 72%
    02:00 +9°C° 0 mm 2 mps 770 mmHg 71%
    03:00 +8°C° 0 mm 2 mps 770 mmHg 70%
    04:00 +8°C° 0 mm 2 mps 770 mmHg 70%
    05:00 +8°C° 0 mm 2 mps 770 mmHg 70%
    06:00 +8°C° 0 mm 2 mps 770 mmHg 70%
    07:00 +9°C° 0 mm 2 mps 770 mmHg 65%
    08:00 +10°C° 0 mm 3 mps 771 mmHg 61%
    09:00 +11°C° 0 mm 3 mps 771 mmHg 57%
    10:00 +12°C° 0 mm 3 mps 771 mmHg 54%
    11:00 +13°C° 0 mm 3 mps 770 mmHg 52%
    12:00 +14°C° 0 mm 3 mps 770 mmHg 49%
    13:00 +14°C° 0 mm 3 mps 770 mmHg 49%
    14:00 +16°C° 0 mm 3 mps 770 mmHg 49%
    15:00 +16°C° 0 mm 3 mps 769 mmHg 49%
    16:00 +15°C° 0 mm 2 mps 769 mmHg 52%
    17:00 +14°C° 0 mm 2 mps 769 mmHg 55%
    18:00 +13°C° 0 mm 2 mps 769 mmHg 59%
    19:00 +11°C° 0 mm 3 mps 769 mmHg 60%
    20:00 +11°C° 0 mm 3 mps 768 mmHg 61%
    21:00 +10°C° 0 mm 3 mps 768 mmHg 62%
    22:00 +10°C° 0 mm 3 mps 768 mmHg 63%
    23:00 +10°C° 0 mm 3 mps 768 mmHg 64%

    Day after tomorrow, 22 October, Tuesday

    Time Temperature Precipitation Wind Pressure Humidity
    00:00 +8°C° 0 mm 4 mps 767 mmHg 64%
    01:00 +8°C° 0 mm 4 mps 767 mmHg 65%
    02:00 +8°C° 0 mm 4 mps 767 mmHg 66%
    03:00 +8°C° 0 mm 4 mps 767 mmHg 67%
    04:00 +8°C° 0 mm 4 mps 766 mmHg 68%
    05:00 +7°C° 0 mm 4 mps 766 mmHg 69%
    06:00 +7°C° 0 mm 4 mps 766 mmHg 70%
    07:00 +10°C° 0 mm 4 mps 766 mmHg 66%
    08:00 +10°C° 0 mm 5 mps 765 mmHg 63%
    09:00 +12°C° 0 mm 5 mps 765 mmHg 60%
    10:00 +13°C° 0 mm 5 mps 765 mmHg 58%
    11:00 +14°C° 0 mm 5 mps 765 mmHg 55%
    12:00 +15°C° 0 mm 5 mps 765 mmHg 52%
    13:00 +16°C° 0 mm 5 mps 765 mmHg 52%
    14:00 +16°C° 0 mm 5 mps 764 mmHg 52%
    15:00 +16°C° 0 mm 5 mps 764 mmHg 52%
    16:00 +15°C° 0 mm 4 mps 764 mmHg 57%
    17:00 +15°C° 0 mm 4 mps 764 mmHg 63%
    18:00 +14°C° 0 mm 3 mps 765 mmHg 68%
    19:00 +13°C° 0 mm 3 mps 765 mmHg 73%
    20:00 +13°C° 0 mm 2 mps 765 mmHg 79%
    21:00 +13°C° 0 mm 2 mps 765 mmHg 84%
    22:00 +12°C° 0 mm 2 mps 765 mmHg 85%
    23:00 +12°C° 0 mm 2 mps 765 mmHg 87%

    23 October, Wednesday

    Time Temperature Precipitation Wind Pressure Humidity
    00:00 +10°C° 0 mm 2 mps 765 mmHg 88%
    01:00 +10°C° 0 mm 2 mps 765 mmHg 90%
    02:00 +9°C° 0 mm 2 mps 765 mmHg 91%
    03:00 +9°C° 0 mm 2 mps 766 mmHg 92%
    04:00 +8°C° 0 mm 2 mps 766 mmHg 92%
    05:00 +8°C° 0 mm 2 mps 766 mmHg 92%
    06:00 +8°C° 0 mm 2 mps 766 mmHg 93%
    07:00 +9°C° 0 mm 2 mps 766 mmHg 86%
    08:00 +9°C° 0 mm 2 mps 767 mmHg 80%
    09:00 +10°C° 0 mm 2 mps 767 mmHg 73%
    10:00 +12°C° 0 mm 2 mps 767 mmHg 68%
    11:00 +13°C° 0 mm 2 mps 767 mmHg 62%
    12:00 +14°C° 0 mm 2 mps 766 mmHg 56%
    13:00 +14°C° 0 mm 2 mps 766 mmHg 53%
    14:00 +15°C° 0 mm 2 mps 766 mmHg 50%
    15:00 +15°C° 0 mm 2 mps 766 mmHg 47%
    16:00 +14°C° 0 mm 2 mps 766 mmHg 51%
    17:00 +12°C° 0 mm 1 mps 766 mmHg 55%
    18:00 +11°C° 0 mm 1 mps 766 mmHg 59%
    19:00 +11°C° 0 mm 1 mps 766 mmHg 62%
    20:00 +10°C° 0 mm 1 mps 766 mmHg 65%
    21:00 +8°C° 0 mm 0 mps 766 mmHg 68%
    22:00 +9°C° 0 mm 1 mps 766 mmHg 68%
    23:00 +9°C° 0 mm 1 mps 766 mmHg 68%

    24 October, Thursday

    Time Temperature Precipitation Wind Pressure Humidity
    00:00 +9°C° 0 mm 1 mps 766 mmHg 68%
    01:00 +8°C° 0 mm 2 mps 766 mmHg 69%
    02:00 +8°C° 0 mm 2 mps 766 mmHg 69%
    03:00 +8°C° 0 mm 2 mps 767 mmHg 70%
    04:00 +8°C° 0 mm 2 mps 767 mmHg 71%
    05:00 +8°C° 0 mm 2 mps 766 mmHg 73%
    06:00 +8°C° 0 mm 2 mps 766 mmHg 74%
    07:00 +9°C° 0 mm 2 mps 767 mmHg 69%
    08:00 +10°C° 0 mm 2 mps 767 mmHg 64%
    09:00 +13°C° 0 mm 2 mps 767 mmHg 60%
    10:00 +14°C° 0 mm 2 mps 767 mmHg 55%
    11:00 +14°C° 0 mm 3 mps 767 mmHg 51%
    12:00 +17°C° 0 mm 3 mps 767 mmHg 46%
    13:00 +17°C° 0 mm 3 mps 766 mmHg 45%
    14:00 +17°C° 0 mm 2 mps 766 mmHg 44%
    15:00 +17°C° 0 mm 2 mps 766 mmHg 43%
    16:00 +16°C° 0 mm 2 mps 766 mmHg 47%
    17:00 +15°C° 0 mm 2 mps 766 mmHg 52%
    18:00 +13°C° 0 mm 2 mps 766 mmHg 56%
    19:00 +13°C° 0 mm 2 mps 767 mmHg 57%
    20:00 +13°C° 0 mm 2 mps 767 mmHg 58%
    21:00 +12°C° 0 mm 2 mps 767 mmHg 59%
    22:00 +12°C° 0 mm 2 mps 767 mmHg 60%
    23:00 +10°C° 0 mm 2 mps 767 mmHg 61%

    25 October, Friday

    Time Temperature Precipitation Wind Pressure Humidity
    00:00 +10°C° 0 mm 2 mps 767 mmHg 62%
    01:00 +10°C° 0 mm 2 mps 767 mmHg 63%
    02:00 +10°C° 0 mm 1 mps 767 mmHg 63%
    03:00 +10°C° 0 mm 1 mps 767 mmHg 64%
    04:00 +9°C° 0 mm 1 mps 767 mmHg 65%
    05:00 +9°C° 0 mm 1 mps 767 mmHg 67%
    06:00 +8°C° 0 mm 1 mps 767 mmHg 68%
    07:00 +10°C° 0 mm 1 mps 768 mmHg 62%
    08:00 +12°C° 0 mm 1 mps 768 mmHg 57%
    09:00 +14°C° 0 mm 1 mps 768 mmHg 51%
    10:00 +15°C° 0 mm 1 mps 768 mmHg 48%
    11:00 +16°C° 0 mm 1 mps 768 mmHg 45%
    12:00 +18°C° 0 mm 1 mps 768 mmHg 42%
    13:00 +18°C° 0 mm 1 mps 768 mmHg 41%
    14:00 +18°C° 0 mm 1 mps 768 mmHg 40%
    15:00 +19°C° 0 mm 1 mps 768 mmHg 38%
    16:00 +16°C° 0 mm 1 mps 768 mmHg 42%
    17:00 +15°C° 0 mm 1 mps 768 mmHg 47%
    18:00 +13°C° 0 mm 1 mps 768 mmHg 51%
    19:00 +13°C° 0 mm 2 mps 768 mmHg 51%
    20:00 +12°C° 0 mm 2 mps 768 mmHg 52%
    21:00 +12°C° 0 mm 2 mps 768 mmHg 53%
    22:00 +10°C° 0 mm 2 mps 768 mmHg 53%
    23:00 +10°C° 0 mm 2 mps 768 mmHg 53%
    Show more